Regional Weather Roundup
Issued by NWS Upton, NY

Current Version | Previous Version | Graphics & Text | Print | Product List | Glossary Off
Versions: 1 2 3 4 5 6 7 8 9 10 11 12 13 14 15 16 17 18 19 20 21 22 23 24 25 26 27 28 29 30 31 32 33 34 35 36 37 38 39 40 41 42 43 44 45 46 47 48 49 50

000
ASUS41 KOKX 290108
RWROKX

REGIONAL WEATHER ROUNDUP
NATIONAL WEATHER SERVICE NEW YORK NY
900 PM EDT THU MAY 28 2015

NOTE: "FAIR" INDICATES FEW OR NO CLOUDS BELOW 12,000 FEET WITH NO
SIGNIFICANT WEATHER AND/OR OBSTRUCTIONS TO VISIBILITY.

NYZ071-072-176-178-NJZ106-104-290200-
NEW YORK CITY METRO AREA


CITY           SKY/WX    TMP DP  RH WIND       PRES   REMARKS
CENTRAL PARK   MOCLDY    80  55  42 VRB3      30.20R
LAGUARDIA APRT MOCLDY    77  64  64 VRB5      30.16R
KENNEDY INTL   CLOUDY    68  58  70 E5        30.17R
NEWARK/LIBERTY MOCLDY    82  51  34 N12       30.16R
BRNX BOT. GARD   N/A     72  64  78 N2        30.17F
TETERBORO      MOCLDY    79  52  38 NW14G20   30.16R
$$

NYZ177-179-078>081-290200-
LONG ISLAND NEW YORK

CITY           SKY/WX    TMP DP  RH WIND       PRES   REMARKS
FARMINGDALE    CLOUDY    67  62  84 S5        30.17R
ISLIP          CLOUDY    66  61  84 SW6       30.16R
SHIRLEY        CLOUDY    67  62  84 SW6       30.18R
WESTHAMPTON    CLOUDY    66  63  90 SW7       30.19R
MONTAUK POINT    N/A     64  60  87 S6        30.18F
$$

NYZ052-065-067-290200-
HUDSON VALLEY

CITY           SKY/WX    TMP DP  RH WIND       PRES   REMARKS
WHITE PLAINS   PTCLDY    71  67  87 NW5       30.18R
NEWBURGH       CLEAR     72  57  60 NW5       30.20R
MONTGOMERY     CLEAR     72  55  55 NW7       30.20R
POUGHKEEPSIE   CLEAR     74  55  51 N10       30.19R
ALBANY         MOCLDY    68  54  60 NW7       30.24R
$$

NJZ001-105-106-008-010-013-015-019>022-104-290200-
NEW JERSEY

CITY           SKY/WX    TMP DP  RH WIND       PRES   REMARKS
NEWARK/LIBERTY MOCLDY    82  51  34 N12       30.16R
TETERBORO      MOCLDY    79  52  38 NW14G20   30.16R
CALDWELL       MOCLDY    77  50  38 CALM      30.19R
MORRISTOWN     MOCLDY    77  52  41 N7G13     30.19R
SOMERVILLE     MOCLDY    78  52  40 N5        30.16R
SUSSEX         PTCLDY    69  53  56 CALM      30.23R
ANDOVER          N/A     70  53  54 CALM      30.21R
TRENTON        MOCLDY    80  56  43 N7        30.17R
MILLVILLE      MOCLDY    72  68  87 CALM      30.17S
ATLANTIC CITY  MOCLDY    71  64  78 S5        30.18R
WRIGHTSTOWN    NOT AVBL
TOMS RIVER     CLOUDY   N/A N/A N/A SW3       30.17S
BELMAR         CLOUDY    73  63  68 SW7       30.17R
$$

PAZ047>061-062-071-290200-
EASTERN PENNSYLVANIA

CITY           SKY/WX    TMP DP  RH WIND       PRES   REMARKS
PHILADELPHIA   MOCLDY    79  67  66 S6        30.17R
ALLENTOWN      PTCLDY    75  52  44 N6        30.20R
SCRANTON       PTCLDY    71  50  47 NE5       30.25R
$$

CTZ002-004>006-009-010-012-RIZ004-006-007-MAZ004-011-015-290200-
SOUTHERN NEW ENGLAND
 IN CT

CITY           SKY/WX    TMP DP  RH WIND       PRES   REMARKS
BRADLEY INTL   MOCLDY    71  55  56 N9        30.19R
HARTFORD       PTCLDY    74  56  53 NW10G20   30.18R
DANBURY        PTCLDY    72  59  63 N7        30.21R
WTRBRY/OXFORD  CLEAR     70  57  64 N12G21    30.21R
BRIDGEPORT     MOCLDY    70  64  81 VRB7      30.16R
MERIDEN        PTCLDY    69  65  86 CALM      30.18R
NEW HAVEN      MOCLDY    68  62  81 N10       30.18R
CHESTER        MOCLDY    70  66  88 W3        30.18R
GROTON         CLOUDY    61  58  90 SW3       30.16R
WILLIMANTIC    MOCLDY    73  66  78 W5        30.17R

 IN RI

CITY           SKY/WX    TMP DP  RH WIND       PRES   REMARKS
PROVIDENCE     CLOUDY    70  64  81 S5        30.17R
BLOCK ISLAND   CLOUDY    59  54  82 SW14      30.19S
WESTERLY       CLOUDY    62  59  90 S3        30.17S

 IN MA

CITY           SKY/WX    TMP DP  RH WIND       PRES   REMARKS
BOSTON         CLOUDY    77  61  57 NW16G22   30.15R
WORCESTER      MOCLDY    68  57  68 NW9       30.21R
WESTFIELD      PTCLDY    70  53  54 N14G20    30.20R
PROVINCETOWN   CLOUDY    61  55  82 SW14G22   30.16R
NANTUCKET      PTCLDY    61  57  87 SW9       30.21R
$$

ANZ330-335-338-340-345-350-353-355-290200-
COASTAL MARINE OBSERVATIONS


STATION/POSITION TIME  SKY/WX   TEMP    WIND        PRES    VSBY  WAVE
                                AIR SEA DIR/SP/G                  HT/PER
                 (UTC)          (F)     (DEG/KT/KT) (MB)    (MI)  (FT/S)
NY HARB ENTRANCE 0050            62 59  200/ 14/ 17 1020.7          3/ 6
4S FIRE IS       0003               57                N/A           4/ 6
20S FIRE ISLAND  0050            61 58  210/ 14/ 17 1021.3          4/ 5
GREAT SOUTH BAY  0000            65 69  220/ 16/ 16   N/A
23SW MTP         0050            58 54  260/  8/ 10 1022.3          4/ 6
HUDSON CANYON    NOT AVBL
KINGS POINT      0000            75 57  160/  2/  3 1020.3
CENTRAL LI SOUND 0000            65 58  210/  8/ 10   N/A
EASTERN LI SOUND 0000            60     190/ 12/ 14   N/A
ROBBINS REEF     0000            80     250/  9/ 11 1019.7
$$


>>>>>>>>>>>>>>>>>>>>>>>>>>>> KEY <<<<<<<<<<<<<<<<<<<<<<<<<<<
>                                                          <
>     SKY/WX - SKY CONDITION/PRESENT WEATHER               <
>     TMP    - TEMPERATURE IN FAHRENHEIT                   <
>     DP     - DEWPOINT IN FAHRENHEIT                      <
>     RH     - RELATIVE HUMIDITY IN PERCENT                <
>     WIND   - DIRECTION AND SPEED IN MPH                  <
>     PRES   - MEAN SEA LEVEL PRESSURE IN INCHES OF HG     <
>     WCI    - WIND CHILL INDEX                            <
>     VSB    - VISIBILITY IN MILES                         <
>     HX     - HEAT INDEX                                  <
>     TC     - TEMPERATURE IN CELSIUS                      <
>     VRB    - VARIABLE WIND DIRECTION                     <
>                                                          <
>>>>>>>>>>>>>>>>>>>>>>>>>>>> KEY <<<<<<<<<<<<<<<<<<<<<<<<<<<




USA.gov is the U.S. government's official web portal to all federal, state and local government web resources and services.